{"data":{"norad_id":61971,"epoch":"2026-05-25T04:01:17.323104Z","epoch_age_seconds":60849,"freshness":"FRESH","line1":"1 61971U 24210N   26145.16756161  .00025140  00000+0  91936-3 0  9996","line2":"2 61971  43.0017 108.1381 0001219 276.9593  83.1120 15.27602161 86614","mean_motion":15.27602161,"eccentricity":0.0001219,"inclination_deg":43.0017,"raan_deg":108.1381,"arg_perigee_deg":276.9593,"mean_anomaly_deg":83.112,"bstar":0.00091936,"rev_number":8661,"period_min":94.265381181272,"perigee_km":482.14636833933,"apogee_km":483.81910933166,"semimajor_km":6861.1197388355,"source":"CELESTRAK","updated_at":"2026-05-25T13:38:19.514489Z"}}